Location: Chervonnoye
(48.6000°N, 34.4000°E)
Time: 15:47:49
(UTC+00:00)

NOAA 15 - Visible Passes

Search period start: 28 November 2021 00:00
Search period end: 08 December 2021 00:00
Orbit: 797 x 812 km, 98.7° (Epoch: 28 November)

Date Brightness Start Highest point End Pass type
(mag) Time Alt. Az. Time Alt. Az. Time Alt. Az.
28 Nov 5.7 15:02:22 10° ESE 15:06:17 22° ENE 15:10:12 10° N visible
28 Nov 4.8 16:40:18 10° S 16:45:34 69° WSW 16:50:52 10° NNW visible
28 Nov 7.6 18:26:00 10° W 18:26:19 10° W 18:26:38 10° W visible
29 Nov 6.1 14:38:40 10° E 14:41:25 14° NE 14:44:10 10° NNE visible
29 Nov 4.4 16:15:04 10° SSE 16:20:21 76° ENE 16:25:39 10° NNW visible
29 Nov 7.1 17:57:18 10° SW 18:00:43 17° W 18:04:09 10° NW visible
30 Nov 7.3 04:26:52 10° NE 04:30:50 21° E 04:34:46 10° SE visible
30 Nov 4.7 15:50:10 10° SE 15:55:14 48° ENE 16:00:18 10° N visible
30 Nov 6.4 17:30:45 10° SSW 17:35:13 27° W 17:39:43 10° NW visible
01 Dec 7.6 04:02:54 10° ENE 04:05:16 13° E 04:07:38 10° ESE visible
01 Dec 5.3 15:25:35 10° ESE 15:30:11 31° ENE 15:34:48 10° N visible
01 Dec 5.6 17:04:48 10° S 17:09:49 43° W 17:14:52 10° NNW visible
02 Dec 5.7 15:01:22 10° ESE 15:05:14 21° ENE 15:09:07 10° N visible
02 Dec 4.8 16:39:15 10° S 16:44:31 70° WSW 16:49:49 10° NNW visible
02 Dec 7.6 18:24:28 10° W 18:25:15 10° W 18:26:02 10° WNW visible
03 Dec 6.2 14:37:43 10° E 14:40:24 14° NE 14:43:03 10° NNE visible
03 Dec 4.4 16:14:02 10° SSE 16:19:18 75° ENE 16:24:36 10° NNW visible
03 Dec 7.1 17:56:11 10° SW 17:59:39 18° W 18:03:08 10° NW visible
04 Dec 7.3 04:25:51 10° NE 04:29:46 21° E 04:33:39 10° SE visible
04 Dec 4.8 15:49:08 10° SE 15:54:11 47° ENE 15:59:14 10° N visible
04 Dec 6.4 17:29:40 10° SSW 17:34:10 28° W 17:38:40 10° NW visible
05 Dec 7.6 04:01:57 10° ENE 04:04:12 13° E 04:06:26 10° ESE visible
05 Dec 5.3 15:24:34 10° ESE 15:29:08 31° ENE 15:33:43 10° N visible
05 Dec 5.6 17:03:44 10° S 17:08:46 44° W 17:13:49 10° NNW visible
06 Dec 5.8 15:00:23 10° ESE 15:04:12 21° ENE 15:08:01 10° N visible
06 Dec 4.7 16:38:11 10° S 16:43:27 72° WSW 16:48:45 10° NNW visible
06 Dec 7.6 18:23:07 10° W 18:24:11 11° W 18:25:14 10° WNW visible
07 Dec 6.2 14:36:46 10° E 14:39:21 14° NE 14:41:56 10° NNE visible
07 Dec 4.4 16:12:59 10° SSE 16:18:15 73° ENE 16:23:32 10° NNW visible
07 Dec 7.0 17:55:04 10° SW 17:58:35 18° W 18:02:07 10° NW visible
